Time,TemperatureF,DewpointF,PressureIn,WindDirection,WindDirectionDegrees,WindSpeedMPH,WindSpeedGustMPH,Humidity,HourlyPrecipIn,Conditions,Clouds,dailyrainin,SoftwareType,DateUTC
2013-03-30 00:00:00,45.0,41.1,30.23,SE,136,2.0,9.0,86,0.00,,,0.00,Wunderground v.1.15,2013-03-30 05:00:00,
2013-03-30 00:06:00,44.8,41.2,30.22,SE,143,2.0,9.0,87,0.00,,,0.00,Wunderground v.1.15,2013-03-30 05:06:00,
2013-03-30 00:12:00,44.6,41.3,30.22,SE,140,2.0,9.0,88,0.00,,,0.00,Wunderground v.1.15,2013-03-30 05:12:00,
2013-03-30 00:17:00,44.5,41.5,30.22,SE,133,2.0,9.0,89,0.00,,,0.00,Wunderground v.1.15,2013-03-30 05:17:00,
2013-03-30 00:23:00,44.4,41.4,30.22,SE,140,2.0,9.0,89,0.00,,,0.00,Wunderground v.1.15,2013-03-30 05:23:00,
2013-03-30 00:28:00,44.3,41.3,30.22,East,96,3.0,9.0,89,0.00,,,0.00,Wunderground v.1.15,2013-03-30 05:28:00,
2013-03-30 00:33:00,44.3,41.3,30.22,SE,138,3.0,9.0,89,0.00,,,0.01,Wunderground v.1.15,2013-03-30 05:33:00,
2013-03-30 00:39:00,44.3,41.3,30.22,SE,138,3.0,9.0,89,0.00,,,0.01,Wunderground v.1.15,2013-03-30 05:39:00,
2013-03-30 00:44:00,44.3,41.6,30.22,SE,133,3.0,9.0,90,0.00,,,0.01,Wunderground v.1.15,2013-03-30 05:44:00,
2013-03-30 00:49:00,44.3,41.6,30.22,SE,136,3.0,3.0,90,0.00,,,0.01,Wunderground v.1.15,2013-03-30 05:49:00,
2013-03-30 00:55:00,44.2,41.5,30.22,East,100,3.0,9.0,90,0.00,,,0.01,Wunderground v.1.15,2013-03-30 05:55:00,
2013-03-30 01:00:00,44.2,41.5,30.22,SE,137,3.0,3.0,90,0.00,,,0.01,Wunderground v.1.15,2013-03-30 06:00:00,
2013-03-30 01:05:00,44.2,41.5,30.22,SE,143,3.0,9.0,90,0.00,,,0.01,Wunderground v.1.15,2013-03-30 06:05:00,
2013-03-30 01:11:00,44.1,41.6,30.22,ESE,118,2.0,9.0,91,0.00,,,0.01,Wunderground v.1.15,2013-03-30 06:11:00,
2013-03-30 01:16:00,44.1,41.6,30.22,SE,136,2.0,9.0,91,0.00,,,0.01,Wunderground v.1.15,2013-03-30 06:16:00,
2013-03-30 01:21:00,44.0,41.5,30.22,SE,126,2.0,9.0,91,0.00,,,0.01,Wunderground v.1.15,2013-03-30 06:21:00,
2013-03-30 01:27:00,44.0,41.5,30.21,SE,127,2.0,9.0,91,0.00,,,0.01,Wunderground v.1.15,2013-03-30 06:27:00,
2013-03-30 01:32:00,44.0,41.5,30.21,SE,124,3.0,9.0,91,0.00,,,0.01,Wunderground v.1.15,2013-03-30 06:32:00,
2013-03-30 01:38:00,44.0,41.5,30.21,SE,125,3.0,9.0,91,0.00,,,0.01,Wunderground v.1.15,2013-03-30 06:38:00,
2013-03-30 01:43:00,44.0,41.5,30.21,SE,140,3.0,9.0,91,0.00,,,0.01,Wunderground v.1.15,2013-03-30 06:43:00,
2013-03-30 01:48:00,44.1,41.6,30.21,SE,138,2.0,9.0,91,0.00,,,0.01,Wunderground v.1.15,2013-03-30 06:48:00,
2013-03-30 01:54:00,44.1,41.6,30.21,SE,136,2.0,9.0,91,0.00,,,0.01,Wunderground v.1.15,2013-03-30 06:54:00,
2013-03-30 01:59:00,44.1,41.6,30.21,SE,136,2.0,9.0,91,0.00,,,0.01,Wunderground v.1.15,2013-03-30 06:59:00,
2013-03-30 02:04:00,44.0,41.5,30.21,SE,140,2.0,9.0,91,0.00,,,0.01,Wunderground v.1.15,2013-03-30 07:04:00,
2013-03-30 02:10:00,43.9,41.4,30.21,SE,140,2.0,9.0,91,0.00,,,0.01,Wunderground v.1.15,2013-03-30 07:10:00,
2013-03-30 02:15:00,43.9,41.7,30.20,SE,137,2.0,9.0,92,0.00,,,0.01,Wunderground v.1.15,2013-03-30 07:15:00,
2013-03-30 02:20:00,43.8,41.6,30.20,SE,140,2.0,9.0,92,0.00,,,0.01,Wunderground v.1.15,2013-03-30 07:20:00,
2013-03-30 02:26:00,43.8,41.6,30.20,SE,142,1.0,9.0,92,0.00,,,0.01,Wunderground v.1.15,2013-03-30 07:26:00,
2013-03-30 02:31:00,43.8,41.6,30.20,SE,143,0.0,9.0,92,0.00,,,0.01,Wunderground v.1.15,2013-03-30 07:31:00,
2013-03-30 02:36:00,43.8,41.6,30.20,SE,142,0.0,9.0,92,0.00,,,0.01,Wunderground v.1.15,2013-03-30 07:36:00,
2013-03-30 02:42:00,43.8,41.6,30.20,SE,143,1.0,9.0,92,0.00,,,0.01,Wunderground v.1.15,2013-03-30 07:42:00,
2013-03-30 02:47:00,43.8,41.6,30.20,SE,142,0.0,9.0,92,0.00,,,0.01,Wunderground v.1.15,2013-03-30 07:47:00,
2013-03-30 02:52:00,43.8,41.6,30.20,SE,143,0.0,9.0,92,0.00,,,0.01,Wunderground v.1.15,2013-03-30 07:52:00,
2013-03-30 02:58:00,43.8,41.6,30.20,SE,142,0.0,9.0,92,0.00,,,0.01,Wunderground v.1.15,2013-03-30 07:58:00,
2013-03-30 03:03:00,43.7,41.5,30.19,SE,143,1.0,9.0,92,0.00,,,0.01,Wunderground v.1.15,2013-03-30 08:03:00,
2013-03-30 03:08:00,43.8,41.6,30.20,SE,142,1.0,9.0,92,0.00,,,0.01,Wunderground v.1.15,2013-03-30 08:08:00,
2013-03-30 03:14:00,43.8,41.6,30.19,SE,142,1.0,9.0,92,0.00,,,0.01,Wunderground v.1.15,2013-03-30 08:14:00,
2013-03-30 03:19:00,43.8,41.6,30.20,SE,143,1.0,9.0,92,0.00,,,0.01,Wunderground v.1.15,2013-03-30 08:19:00,
2013-03-30 03:24:00,43.8,41.6,30.19,SE,143,0.0,9.0,92,0.00,,,0.01,Wunderground v.1.15,2013-03-30 08:24:00,
2013-03-30 03:30:00,43.7,41.5,30.19,SE,140,1.0,9.0,92,0.00,,,0.01,Wunderground v.1.15,2013-03-30 08:30:00,
2013-03-30 03:35:00,43.5,41.6,30.19,SE,137,1.0,9.0,93,0.00,,,0.01,Wunderground v.1.15,2013-03-30 08:35:00,
2013-03-30 03:40:00,43.4,41.5,30.19,SE,140,2.0,2.0,93,0.00,,,0.01,Wunderground v.1.15,2013-03-30 08:40:00,
2013-03-30 03:46:00,43.3,41.4,30.19,SE,140,2.0,9.0,93,0.00,,,0.01,Wunderground v.1.15,2013-03-30 08:46:00,
2013-03-30 03:51:00,43.3,41.4,30.19,SE,140,2.0,9.0,93,0.00,,,0.01,Wunderground v.1.15,2013-03-30 08:51:00,
2013-03-30 03:57:00,43.3,41.4,30.19,SE,140,2.0,9.0,93,0.00,,,0.01,Wunderground v.1.15,2013-03-30 08:57:00,
2013-03-30 04:03:00,43.2,41.3,30.19,SE,140,2.0,9.0,93,0.00,,,0.01,Wunderground v.1.15,2013-03-30 09:03:00,
2013-03-30 04:08:00,43.1,41.2,30.18,SE,140,2.0,9.0,93,0.00,,,0.01,Wunderground v.1.15,2013-03-30 09:08:00,
2013-03-30 04:14:00,43.1,41.2,30.18,SE,141,1.0,9.0,93,0.00,,,0.01,Wunderground v.1.15,2013-03-30 09:14:00,
2013-03-30 04:20:00,43.0,41.1,30.18,SE,141,1.0,9.0,93,0.00,,,0.01,Wunderground v.1.15,2013-03-30 09:20:00,
2013-03-30 04:26:00,43.0,41.1,30.18,SE,140,1.0,9.0,93,0.00,,,0.01,Wunderground v.1.15,2013-03-30 09:26:00,
2013-03-30 04:31:00,43.0,41.1,30.18,SE,141,1.0,9.0,93,0.00,,,0.01,Wunderground v.1.15,2013-03-30 09:31:00,
2013-03-30 04:34:00,43.0,41.1,30.17,SE,141,1.0,9.0,93,0.00,,,0.01,Wunderground v.1.15,2013-03-30 09:34:00,
2013-03-30 04:40:00,43.0,41.1,30.17,SE,141,0.0,9.0,93,0.00,,,0.01,Wunderground v.1.15,2013-03-30 09:40:00,
2013-03-30 04:46:00,42.9,41.0,30.17,SE,141,0.0,9.0,93,0.00,,,0.01,Wunderground v.1.15,2013-03-30 09:46:00,
2013-03-30 04:51:00,42.9,41.3,30.17,SE,141,0.0,9.0,94,0.00,,,0.01,Wunderground v.1.15,2013-03-30 09:51:00,
2013-03-30 04:56:00,42.9,41.3,30.18,SE,143,1.0,9.0,94,0.00,,,0.01,Wunderground v.1.15,2013-03-30 09:56:00,
2013-03-30 05:01:00,42.8,41.2,30.17,SE,143,1.0,9.0,94,0.00,,,0.01,Wunderground v.1.15,2013-03-30 10:01:00,
2013-03-30 05:07:00,42.8,41.2,30.18,SE,137,1.0,9.0,94,0.00,,,0.01,Wunderground v.1.15,2013-03-30 10:07:00,
2013-03-30 05:12:00,42.8,41.2,30.18,SE,140,1.0,9.0,94,0.00,,,0.01,Wunderground v.1.15,2013-03-30 10:12:00,
2013-03-30 05:17:00,42.8,41.2,30.18,SE,144,1.0,9.0,94,0.00,,,0.01,Wunderground v.1.15,2013-03-30 10:17:00,
2013-03-30 05:23:00,42.7,41.1,30.18,SE,140,1.0,9.0,94,0.00,,,0.01,Wunderground v.1.15,2013-03-30 10:23:00,
2013-03-30 05:29:00,42.8,41.2,30.18,SE,140,1.0,9.0,94,0.00,,,0.01,Wunderground v.1.15,2013-03-30 10:29:00,
2013-03-30 05:34:00,42.9,41.3,30.18,SE,141,1.0,9.0,94,0.00,,,0.01,Wunderground v.1.15,2013-03-30 10:34:00,
2013-03-30 05:39:00,42.9,41.0,30.18,SE,140,1.0,9.0,93,0.00,,,0.01,Wunderground v.1.15,2013-03-30 10:39:00,
2013-03-30 05:44:00,42.9,41.0,30.18,SE,142,1.0,9.0,93,0.00,,,0.01,Wunderground v.1.15,2013-03-30 10:44:00,
2013-03-30 05:50:00,42.9,41.0,30.18,SE,143,0.0,9.0,93,0.00,,,0.01,Wunderground v.1.15,2013-03-30 10:50:00,
2013-03-30 05:55:00,42.8,40.9,30.18,SE,144,1.0,9.0,93,0.00,,,0.01,Wunderground v.1.15,2013-03-30 10:55:00,
2013-03-30 06:00:00,42.7,40.8,30.18,SE,135,1.0,9.0,93,0.00,,,0.01,Wunderground v.1.15,2013-03-30 11:00:00,
2013-03-30 06:05:00,42.5,40.3,30.18,SE,133,2.0,9.0,92,0.00,,,0.01,Wunderground v.1.15,2013-03-30 11:05:00,
2013-03-30 06:12:00,42.5,40.3,30.18,SE,138,2.0,9.0,92,0.00,,,0.01,Wunderground v.1.15,2013-03-30 11:12:00,
2013-03-30 06:17:00,42.5,40.6,30.18,SE,137,2.0,9.0,93,0.00,,,0.01,Wunderground v.1.15,2013-03-30 11:17:00,
2013-03-30 06:23:00,42.4,40.5,30.18,SE,131,2.0,9.0,93,0.00,,,0.01,Wunderground v.1.15,2013-03-30 11:23:00,
2013-03-30 06:28:00,42.3,40.7,30.18,SE,131,2.0,9.0,94,0.00,,,0.01,Wunderground v.1.15,2013-03-30 11:28:00,
2013-03-30 06:33:00,42.2,40.6,30.19,SE,140,2.0,9.0,94,0.00,,,0.01,Wunderground v.1.15,2013-03-30 11:33:00,
2013-03-30 06:39:00,42.2,40.6,30.19,SE,140,2.0,9.0,94,0.00,,,0.01,Wunderground v.1.15,2013-03-30 11:39:00,
2013-03-30 06:45:00,42.3,40.7,30.19,SE,140,1.0,9.0,94,0.00,,,0.01,Wunderground v.1.15,2013-03-30 11:45:00,
2013-03-30 06:51:00,42.5,41.2,30.19,SE,140,1.0,9.0,95,0.00,,,0.01,Wunderground v.1.15,2013-03-30 11:51:00,
2013-03-30 06:56:00,42.5,40.9,30.19,SE,140,1.0,9.0,94,0.00,,,0.01,Wunderground v.1.15,2013-03-30 11:56:00,
2013-03-30 07:01:00,42.5,40.9,30.19,SE,140,1.0,9.0,94,0.00,,,0.01,Wunderground v.1.15,2013-03-30 12:01:00,
2013-03-30 07:07:00,42.5,40.9,30.19,SE,140,2.0,9.0,94,0.00,,,0.01,Wunderground v.1.15,2013-03-30 12:07:00,
2013-03-30 07:12:00,42.5,40.9,30.19,SE,138,2.0,9.0,94,0.00,,,0.01,Wunderground v.1.15,2013-03-30 12:12:00,
2013-03-30 07:17:00,42.5,40.9,30.19,SE,138,2.0,9.0,94,0.00,,,0.01,Wunderground v.1.15,2013-03-30 12:17:00,
2013-03-30 07:23:00,42.6,41.0,30.19,SE,141,2.0,9.0,94,0.00,,,0.01,Wunderground v.1.15,2013-03-30 12:23:00,
2013-03-30 07:29:00,42.7,41.1,30.19,SE,140,2.0,9.0,94,0.00,,,0.01,Wunderground v.1.15,2013-03-30 12:29:00,
2013-03-30 07:34:00,42.6,41.0,30.20,SE,141,2.0,9.0,94,0.00,,,0.01,Wunderground v.1.15,2013-03-30 12:34:00,
2013-03-30 07:40:00,42.5,40.9,30.20,SE,138,2.0,2.0,94,0.00,,,0.01,Wunderground v.1.15,2013-03-30 12:40:00,
2013-03-30 07:45:00,42.6,41.0,30.20,SE,143,1.0,9.0,94,0.00,,,0.01,Wunderground v.1.15,2013-03-30 12:45:00,
2013-03-30 07:50:00,42.7,41.1,30.20,SE,143,1.0,9.0,94,0.00,,,0.01,Wunderground v.1.15,2013-03-30 12:50:00,
2013-03-30 07:56:00,43.1,41.5,30.20,SE,142,1.0,9.0,94,0.00,,,0.01,Wunderground v.1.15,2013-03-30 12:56:00,
2013-03-30 08:01:00,43.3,41.7,30.20,SE,141,1.0,9.0,94,0.00,,,0.01,Wunderground v.1.15,2013-03-30 13:01:00,
2013-03-30 08:07:00,43.4,41.8,30.20,SE,144,1.0,9.0,94,0.00,,,0.01,Wunderground v.1.15,2013-03-30 13:07:00,
2013-03-30 08:12:00,43.2,41.3,30.20,SE,140,1.0,9.0,93,0.00,,,0.01,Wunderground v.1.15,2013-03-30 13:12:00,
2013-03-30 08:18:00,43.3,41.7,30.21,SE,140,1.0,9.0,94,0.00,,,0.01,Wunderground v.1.15,2013-03-30 13:18:00,
2013-03-30 08:23:00,43.6,42.0,30.21,SE,145,1.0,9.0,94,0.00,,,0.01,Wunderground v.1.15,2013-03-30 13:23:00,
2013-03-30 08:29:00,43.7,42.1,30.21,SE,145,1.0,9.0,94,0.00,,,0.01,Wunderground v.1.15,2013-03-30 13:29:00,
2013-03-30 08:34:00,43.9,42.0,30.21,SE,145,0.0,9.0,93,0.00,,,0.01,Wunderground v.1.15,2013-03-30 13:34:00,
2013-03-30 08:39:00,44.2,42.3,30.21,SE,145,0.0,9.0,93,0.00,,,0.01,Wunderground v.1.15,2013-03-30 13:39:00,
2013-03-30 08:45:00,44.8,43.2,30.20,SE,145,0.0,9.0,94,0.00,,,0.01,Wunderground v.1.15,2013-03-30 13:45:00,
2013-03-30 08:51:00,45.3,43.1,30.20,SE,143,1.0,9.0,92,0.00,,,0.01,Wunderground v.1.15,2013-03-30 13:51:00,
2013-03-30 08:57:00,45.3,43.1,30.20,SE,140,2.0,9.0,92,0.00,,,0.01,Wunderground v.1.15,2013-03-30 13:57:00,
2013-03-30 09:02:00,45.8,43.9,30.19,SE,140,2.0,9.0,93,0.00,,,0.01,Wunderground v.1.15,2013-03-30 14:02:00,
2013-03-30 09:07:00,46.1,43.6,30.19,SE,142,2.0,9.0,91,0.00,,,0.01,Wunderground v.1.15,2013-03-30 14:07:00,
2013-03-30 09:13:00,46.4,43.6,30.19,SE,138,2.0,9.0,90,0.00,,,0.01,Wunderground v.1.15,2013-03-30 14:13:00,
2013-03-30 09:18:00,47.0,44.2,30.19,SE,124,2.0,9.0,90,0.00,,,0.01,Wunderground v.1.15,2013-03-30 14:18:00,
2013-03-30 09:23:00,47.8,44.4,30.18,SE,135,2.0,9.0,88,0.00,,,0.01,Wunderground v.1.15,2013-03-30 14:23:00,
2013-03-30 09:29:00,48.3,44.3,30.18,SE,143,2.0,9.0,86,0.00,,,0.01,Wunderground v.1.15,2013-03-30 14:29:00,
2013-03-30 09:34:00,48.9,44.6,30.18,SE,138,2.0,9.0,85,0.00,,,0.01,Wunderground v.1.15,2013-03-30 14:34:00,
2013-03-30 09:39:00,49.1,44.2,30.18,SE,126,2.0,9.0,83,0.00,,,0.01,Wunderground v.1.15,2013-03-30 14:39:00,
2013-03-30 09:45:00,49.2,43.6,30.18,SE,140,2.0,9.0,81,0.00,,,0.01,Wunderground v.1.15,2013-03-30 14:45:00,
2013-03-30 09:50:00,49.4,43.5,30.18,SE,140,3.0,3.0,80,0.00,,,0.01,Wunderground v.1.15,2013-03-30 14:50:00,
2013-03-30 09:55:00,49.7,43.8,30.18,SE,133,2.0,9.0,80,0.00,,,0.01,Wunderground v.1.15,2013-03-30 14:55:00,
2013-03-30 10:02:00,50.4,44.5,30.18,ESE,123,2.0,9.0,80,0.00,,,0.01,Wunderground v.1.15,2013-03-30 15:02:00,
2013-03-30 10:08:00,50.9,44.3,30.18,SSE,150,2.0,9.0,78,0.00,,,0.01,Wunderground v.1.15,2013-03-30 15:08:00,
2013-03-30 10:13:00,51.5,44.5,30.18,ESE,112,2.0,9.0,77,0.00,,,0.01,Wunderground v.1.15,2013-03-30 15:13:00,
2013-03-30 10:19:00,51.8,44.5,30.18,SE,137,2.0,9.0,76,0.00,,,0.01,Wunderground v.1.15,2013-03-30 15:19:00,
2013-03-30 10:25:00,52.1,44.1,30.18,ESE,110,2.0,9.0,74,0.00,,,0.01,Wunderground v.1.15,2013-03-30 15:25:00,
2013-03-30 10:30:00,52.6,44.9,30.18,SE,145,2.0,2.0,75,0.00,,,0.01,Wunderground v.1.15,2013-03-30 15:30:00,
2013-03-30 10:36:00,53.3,44.9,30.17,SE,134,2.0,9.0,73,0.00,,,0.01,Wunderground v.1.15,2013-03-30 15:36:00,
2013-03-30 10:41:00,53.7,44.5,30.17,SE,144,1.0,9.0,71,0.00,,,0.01,Wunderground v.1.15,2013-03-30 15:41:00,
2013-03-30 10:47:00,53.6,44.8,30.17,SE,140,2.0,9.0,72,0.00,,,0.01,Wunderground v.1.15,2013-03-30 15:47:00,
2013-03-30 10:52:00,53.8,45.3,30.17,SE,140,2.0,9.0,73,0.00,,,0.01,Wunderground v.1.15,2013-03-30 15:52:00,
2013-03-30 10:58:00,55.0,45.0,30.17,SSE,156,2.0,9.0,69,0.00,,,0.01,Wunderground v.1.15,2013-03-30 15:58:00,
2013-03-30 11:03:00,56.1,46.4,30.17,SE,136,2.0,9.0,70,0.00,,,0.01,Wunderground v.1.15,2013-03-30 16:03:00,
2013-03-30 11:09:00,56.4,45.6,30.17,SE,140,2.0,9.0,67,0.00,,,0.01,Wunderground v.1.15,2013-03-30 16:09:00,
2013-03-30 11:14:00,56.8,45.6,30.16,SSE,153,3.0,9.0,66,0.00,,,0.01,Wunderground v.1.15,2013-03-30 16:14:00,
2013-03-30 11:19:00,57.6,45.9,30.16,SE,144,1.0,9.0,65,0.00,,,0.01,Wunderground v.1.15,2013-03-30 16:19:00,
2013-03-30 11:25:00,57.9,45.8,30.16,SSE,168,2.0,9.0,64,0.00,,,0.01,Wunderground v.1.15,2013-03-30 16:25:00,
2013-03-30 11:30:00,57.5,45.8,30.16,SSE,166,2.0,9.0,65,0.00,,,0.01,Wunderground v.1.15,2013-03-30 16:30:00,
2013-03-30 11:36:00,58.4,45.8,30.16,SSE,157,1.0,9.0,63,0.00,,,0.01,Wunderground v.1.15,2013-03-30 16:36:00,
2013-03-30 11:42:00,59.2,45.8,30.15,South,183,1.0,9.0,61,0.00,,,0.01,Wunderground v.1.15,2013-03-30 16:42:00,
2013-03-30 11:47:00,58.9,45.9,30.15,SSE,155,2.0,9.0,62,0.00,,,0.01,Wunderground v.1.15,2013-03-30 16:47:00,
2013-03-30 11:52:00,59.7,45.3,30.15,SSE,167,2.0,9.0,59,0.00,,,0.01,Wunderground v.1.15,2013-03-30 16:52:00,
2013-03-30 11:58:00,59.6,45.7,30.15,South,183,2.0,9.0,60,0.00,,,0.01,Wunderground v.1.15,2013-03-30 16:58:00,
2013-03-30 12:03:00,60.2,44.0,30.14,SSE,162,3.0,9.0,55,0.00,,,0.01,Wunderground v.1.15,2013-03-30 17:03:00,
2013-03-30 12:08:00,60.7,44.4,30.14,South,175,4.0,9.0,55,0.00,,,0.01,Wunderground v.1.15,2013-03-30 17:08:00,
2013-03-30 12:14:00,60.2,42.5,30.14,South,178,5.0,9.0,52,0.00,,,0.01,Wunderground v.1.15,2013-03-30 17:14:00,
2013-03-30 12:20:00,60.0,42.3,30.14,SSE,157,4.0,4.0,52,0.00,,,0.01,Wunderground v.1.15,2013-03-30 17:20:00,
2013-03-30 12:25:00,60.9,43.1,30.13,SW,221,3.0,9.0,52,0.00,,,0.01,Wunderground v.1.15,2013-03-30 17:25:00,
2013-03-30 12:30:00,60.6,42.9,30.13,South,179,3.0,9.0,52,0.00,,,0.01,Wunderground v.1.15,2013-03-30 17:30:00,
2013-03-30 12:36:00,60.7,43.0,30.12,South,185,3.0,9.0,52,0.00,,,0.01,Wunderground v.1.15,2013-03-30 17:36:00,
2013-03-30 12:41:00,61.1,43.8,30.12,South,171,3.0,9.0,53,0.00,,,0.01,Wunderground v.1.15,2013-03-30 17:41:00,
2013-03-30 12:47:00,61.3,42.5,30.12,South,190,3.0,9.0,50,0.00,,,0.01,Wunderground v.1.15,2013-03-30 17:47:00,
2013-03-30 12:52:00,61.7,43.4,30.11,SSE,168,3.0,9.0,51,0.00,,,0.01,Wunderground v.1.15,2013-03-30 17:52:00,
2013-03-30 12:57:00,62.1,44.3,30.11,South,191,3.0,9.0,52,0.00,,,0.01,Wunderground v.1.15,2013-03-30 17:57:00,
2013-03-30 13:03:00,61.9,44.1,30.11,SSE,164,4.0,9.0,52,0.00,,,0.01,Wunderground v.1.15,2013-03-30 18:03:00,
2013-03-30 13:08:00,61.7,43.9,30.11,South,174,5.0,10.0,52,0.00,,,0.01,Wunderground v.1.15,2013-03-30 18:08:00,
2013-03-30 13:14:00,62.3,43.9,30.10,South,171,4.0,9.0,51,0.00,,,0.01,Wunderground v.1.15,2013-03-30 18:14:00,
2013-03-30 13:20:00,62.6,44.2,30.10,South,169,3.0,3.0,51,0.00,,,0.01,Wunderground v.1.15,2013-03-30 18:20:00,
2013-03-30 13:25:00,63.2,44.8,30.10,South,190,2.0,9.0,51,0.00,,,0.01,Wunderground v.1.15,2013-03-30 18:25:00,
2013-03-30 13:30:00,63.4,43.9,30.10,South,188,2.0,9.0,49,0.00,,,0.01,Wunderground v.1.15,2013-03-30 18:30:00,
2013-03-30 13:36:00,63.3,44.3,30.10,SSE,150,3.0,9.0,50,0.00,,,0.01,Wunderground v.1.15,2013-03-30 18:36:00,
2013-03-30 13:41:00,63.7,44.7,30.09,South,174,2.0,9.0,50,0.00,,,0.01,Wunderground v.1.15,2013-03-30 18:41:00,
2013-03-30 13:46:00,63.2,43.7,30.09,South,169,4.0,9.0,49,0.00,,,0.01,Wunderground v.1.15,2013-03-30 18:46:00,
2013-03-30 13:52:00,63.5,43.4,30.08,SE,143,4.0,9.0,48,0.00,,,0.01,Wunderground v.1.15,2013-03-30 18:52:00,
2013-03-30 13:57:00,64.6,43.9,30.08,South,180,3.0,9.0,47,0.00,,,0.01,Wunderground v.1.15,2013-03-30 18:57:00,
2013-03-30 14:03:00,64.3,43.1,30.08,South,180,3.0,9.0,46,0.00,,,0.01,Wunderground v.1.15,2013-03-30 19:03:00,
2013-03-30 14:08:00,64.7,44.0,30.08,SSW,198,3.0,9.0,47,0.00,,,0.01,Wunderground v.1.15,2013-03-30 19:08:00,
2013-03-30 14:13:00,65.4,44.1,30.07,SSE,153,3.0,9.0,46,0.00,,,0.01,Wunderground v.1.15,2013-03-30 19:13:00,
2013-03-30 14:18:00,66.0,44.0,30.07,South,173,3.0,9.0,45,0.00,,,0.01,Wunderground v.1.15,2013-03-30 19:18:00,
2013-03-30 14:24:00,66.0,42.9,30.07,SW,224,3.0,9.0,43,0.00,,,0.01,Wunderground v.1.15,2013-03-30 19:24:00,
2013-03-30 14:29:00,65.4,42.3,30.07,SSE,150,4.0,9.0,43,0.00,,,0.01,Wunderground v.1.15,2013-03-30 19:29:00,
2013-03-30 14:34:00,64.9,43.0,30.06,South,186,4.0,9.0,45,0.00,,,0.01,Wunderground v.1.15,2013-03-30 19:34:00,
2013-03-30 14:40:00,64.8,42.9,30.06,SSW,207,4.0,9.0,45,0.00,,,0.01,Wunderground v.1.15,2013-03-30 19:40:00,
2013-03-30 14:45:00,64.6,43.3,30.06,South,179,4.0,9.0,46,0.00,,,0.01,Wunderground v.1.15,2013-03-30 19:45:00,
2013-03-30 14:50:00,64.8,43.5,30.06,SW,221,3.0,9.0,46,0.00,,,0.01,Wunderground v.1.15,2013-03-30 19:50:00,
2013-03-30 14:56:00,64.6,43.3,30.06,South,190,4.0,9.0,46,0.00,,,0.01,Wunderground v.1.15,2013-03-30 19:56:00,
2013-03-30 15:01:00,64.6,43.3,30.06,South,171,5.0,9.0,46,0.00,,,0.01,Wunderground v.1.15,2013-03-30 20:01:00,
2013-03-30 15:06:00,65.0,43.7,30.05,WSW,238,3.0,9.0,46,0.00,,,0.01,Wunderground v.1.15,2013-03-30 20:06:00,
2013-03-30 15:12:00,65.1,43.8,30.05,South,170,3.0,9.0,46,0.00,,,0.01,Wunderground v.1.15,2013-03-30 20:12:00,
2013-03-30 15:17:00,65.0,44.3,30.05,SW,221,4.0,9.0,47,0.00,,,0.01,Wunderground v.1.15,2013-03-30 20:17:00,
2013-03-30 15:23:00,65.0,44.3,30.05,WSW,254,5.0,9.0,47,0.00,,,0.01,Wunderground v.1.15,2013-03-30 20:23:00,
2013-03-30 15:28:00,64.9,44.2,30.05,SSW,200,5.0,9.0,47,0.00,,,0.01,Wunderground v.1.15,2013-03-30 20:28:00,
2013-03-30 15:33:00,64.7,44.5,30.04,WSW,246,5.0,9.0,48,0.00,,,0.01,Wunderground v.1.15,2013-03-30 20:33:00,
2013-03-30 15:39:00,64.4,44.3,30.04,SSW,211,5.0,9.0,48,0.00,,,0.01,Wunderground v.1.15,2013-03-30 20:39:00,
2013-03-30 15:45:00,64.5,44.9,30.04,South,181,5.0,9.0,49,0.00,,,0.01,Wunderground v.1.15,2013-03-30 20:45:00,
2013-03-30 15:50:00,64.5,44.9,30.03,SSW,213,5.0,9.0,49,0.00,,,0.01,Wunderground v.1.15,2013-03-30 20:50:00,
2013-03-30 15:55:00,64.6,45.0,30.03,SSW,198,5.0,9.0,49,0.00,,,0.01,Wunderground v.1.15,2013-03-30 20:55:00,
2013-03-30 16:01:00,64.6,45.0,30.03,SW,233,5.0,6.0,49,0.00,,,0.01,Wunderground v.1.15,2013-03-30 21:01:00,
2013-03-30 16:06:00,64.5,44.9,30.03,SSW,213,5.0,9.0,49,0.00,,,0.01,Wunderground v.1.15,2013-03-30 21:06:00,
2013-03-30 16:12:00,64.7,45.6,30.03,South,169,4.0,9.0,50,0.00,,,0.01,Wunderground v.1.15,2013-03-30 21:12:00,
2013-03-30 16:18:00,64.8,46.2,30.02,South,171,3.0,9.0,51,0.00,,,0.01,Wunderground v.1.15,2013-03-30 21:18:00,
2013-03-30 16:23:00,64.9,45.8,30.02,South,186,3.0,9.0,50,0.00,,,0.01,Wunderground v.1.15,2013-03-30 21:23:00,
2013-03-30 16:28:00,64.8,45.2,30.02,South,190,4.0,9.0,49,0.00,,,0.01,Wunderground v.1.15,2013-03-30 21:28:00,
2013-03-30 16:34:00,65.0,45.4,30.02,South,183,4.0,9.0,49,0.00,,,0.01,Wunderground v.1.15,2013-03-30 21:34:00,
2013-03-30 16:40:00,65.0,45.9,30.02,SSW,200,4.0,9.0,50,0.00,,,0.01,Wunderground v.1.15,2013-03-30 21:40:00,
2013-03-30 16:45:00,65.0,45.9,30.02,South,176,4.0,9.0,50,0.00,,,0.01,Wunderground v.1.15,2013-03-30 21:45:00,
2013-03-30 16:50:00,64.8,45.7,30.02,South,182,4.0,9.0,50,0.00,,,0.01,Wunderground v.1.15,2013-03-30 21:50:00,
2013-03-30 16:56:00,64.6,46.1,30.02,SSW,194,4.0,9.0,51,0.00,,,0.01,Wunderground v.1.15,2013-03-30 21:56:00,
2013-03-30 17:02:00,64.4,45.9,30.02,SSW,193,4.0,9.0,51,0.00,,,0.01,Wunderground v.1.15,2013-03-30 22:02:00,
2013-03-30 17:07:00,64.2,46.2,30.02,South,176,3.0,9.0,52,0.00,,,0.01,Wunderground v.1.15,2013-03-30 22:07:00,
2013-03-30 17:12:00,64.0,46.0,30.02,South,184,4.0,9.0,52,0.00,,,0.01,Wunderground v.1.15,2013-03-30 22:12:00,
2013-03-30 17:17:00,63.9,45.9,30.03,South,174,5.0,9.0,52,0.00,,,0.01,Wunderground v.1.15,2013-03-30 22:17:00,
2013-03-30 17:23:00,63.6,47.6,30.03,West,261,6.0,20.0,56,0.00,,,0.01,Wunderground v.1.15,2013-03-30 22:23:00,
2013-03-30 17:28:00,61.4,50.3,30.04,West,273,10.0,20.0,67,0.00,,,0.01,Wunderground v.1.15,2013-03-30 22:28:00,
2013-03-30 17:33:00,58.7,52.2,30.05,WSW,257,10.0,17.0,79,0.00,,,0.02,Wunderground v.1.15,2013-03-30 22:33:00,
2013-03-30 17:39:00,57.4,52.6,30.05,WSW,251,8.0,17.0,84,0.00,,,0.02,Wunderground v.1.15,2013-03-30 22:39:00,
2013-03-30 17:44:00,56.7,53.2,30.05,South,191,7.0,11.0,88,0.13,,,0.03,Wunderground v.1.15,2013-03-30 22:44:00,
2013-03-30 17:50:00,56.2,53.3,30.05,WSW,240,7.0,10.0,90,0.11,,,0.05,Wunderground v.1.15,2013-03-30 22:50:00,
2013-03-30 17:55:00,55.9,53.3,30.05,SW,226,7.0,10.0,91,0.16,,,0.06,Wunderground v.1.15,2013-03-30 22:55:00,
2013-03-30 18:00:00,55.8,53.5,30.05,South,181,7.0,9.0,92,0.23,,,0.08,Wunderground v.1.15,2013-03-30 23:00:00,
2013-03-30 18:06:00,55.7,53.7,30.05,SSW,200,6.0,12.0,93,0.32,,,0.10,Wunderground v.1.15,2013-03-30 23:06:00,
2013-03-30 18:11:00,55.5,53.8,30.05,SSW,197,6.0,9.0,94,0.19,,,0.12,Wunderground v.1.15,2013-03-30 23:11:00,
2013-03-30 18:16:00,55.5,53.8,30.05,SW,223,4.0,9.0,94,0.25,,,0.14,Wunderground v.1.15,2013-03-30 23:16:00,
2013-03-30 18:22:00,55.4,53.7,30.05,South,174,4.0,9.0,94,0.28,,,0.16,Wunderground v.1.15,2013-03-30 23:22:00,
2013-03-30 18:27:00,55.4,54.0,30.04,South,178,4.0,9.0,95,0.19,,,0.18,Wunderground v.1.15,2013-03-30 23:27:00,
2013-03-30 18:33:00,55.4,54.0,30.04,SSW,208,3.0,9.0,95,0.12,,,0.19,Wunderground v.1.15,2013-03-30 23:33:00,
2013-03-30 18:38:00,55.3,53.9,30.03,South,174,3.0,9.0,95,0.08,,,0.19,Wunderground v.1.15,2013-03-30 23:38:00,
2013-03-30 18:43:00,55.3,53.9,30.03,South,171,3.0,9.0,95,0.07,,,0.20,Wunderground v.1.15,2013-03-30 23:43:00,
2013-03-30 18:49:00,55.3,53.9,30.03,SSW,197,3.0,9.0,95,0.06,,,0.21,Wunderground v.1.15,2013-03-30 23:49:00,
2013-03-30 18:54:00,55.3,53.9,30.03,SSW,194,3.0,9.0,95,0.06,,,0.21,Wunderground v.1.15,2013-03-30 23:54:00,
2013-03-30 19:00:00,55.3,53.9,30.02,SW,226,4.0,9.0,95,0.05,,,0.21,Wunderground v.1.15,2013-03-31 00:00:00,
2013-03-30 19:06:00,55.3,53.9,30.03,South,175,4.0,9.0,95,0.04,,,0.22,Wunderground v.1.15,2013-03-31 00:06:00,
2013-03-30 19:11:00,55.2,53.8,30.02,SSE,152,4.0,9.0,95,0.04,,,0.22,Wunderground v.1.15,2013-03-31 00:11:00,
2013-03-30 19:16:00,55.2,53.8,30.02,SSE,166,3.0,9.0,95,0.04,,,0.22,Wunderground v.1.15,2013-03-31 00:16:00,
2013-03-30 19:22:00,55.2,53.8,30.02,South,181,2.0,9.0,95,0.00,,,0.22,Wunderground v.1.15,2013-03-31 00:22:00,
2013-03-30 19:27:00,55.1,53.7,30.02,SSE,162,2.0,9.0,95,0.00,,,0.22,Wunderground v.1.15,2013-03-31 00:27:00,
2013-03-30 19:32:00,55.1,53.7,30.02,South,173,2.0,9.0,95,0.00,,,0.23,Wunderground v.1.15,2013-03-31 00:32:00,
2013-03-30 19:38:00,55.0,53.6,30.01,SSE,160,1.0,9.0,95,0.00,,,0.23,Wunderground v.1.15,2013-03-31 00:38:00,
2013-03-30 19:43:00,55.0,53.6,30.01,SSE,167,1.0,9.0,95,0.00,,,0.23,Wunderground v.1.15,2013-03-31 00:43:00,
2013-03-30 19:48:00,54.9,53.5,30.00,SSE,167,0.0,9.0,95,0.00,,,0.23,Wunderground v.1.15,2013-03-31 00:48:00,
2013-03-30 19:54:00,54.9,53.8,30.00,SSE,167,0.0,9.0,96,0.00,,,0.23,Wunderground v.1.15,2013-03-31 00:54:00,
2013-03-30 19:59:00,54.9,53.5,30.00,SSE,167,0.0,9.0,95,0.00,,,0.23,Wunderground v.1.15,2013-03-31 00:59:00,
2013-03-30 20:05:00,54.8,53.7,30.00,SSE,167,0.0,9.0,96,0.00,,,0.23,Wunderground v.1.15,2013-03-31 01:05:00,
2013-03-30 20:10:00,54.8,53.7,30.00,SSE,167,0.0,9.0,96,0.00,,,0.24,Wunderground v.1.15,2013-03-31 01:10:00,
2013-03-30 20:15:00,54.8,53.7,30.00,SSE,167,0.0,9.0,96,0.00,,,0.24,Wunderground v.1.15,2013-03-31 01:15:00,
2013-03-30 20:20:00,54.8,53.7,30.00,SSE,167,1.0,9.0,96,0.00,,,0.24,Wunderground v.1.15,2013-03-31 01:20:00,
2013-03-30 20:26:00,54.8,53.7,30.00,South,174,1.0,9.0,96,0.00,,,0.24,Wunderground v.1.15,2013-03-31 01:26:00,
2013-03-30 20:31:00,54.8,53.7,30.00,South,171,1.0,9.0,96,0.00,,,0.25,Wunderground v.1.15,2013-03-31 01:31:00,
2013-03-30 20:37:00,54.7,53.6,30.01,South,171,1.0,9.0,96,0.00,,,0.25,Wunderground v.1.15,2013-03-31 01:37:00,
2013-03-30 20:42:00,54.7,53.6,30.00,South,171,1.0,9.0,96,0.04,,,0.26,Wunderground v.1.15,2013-03-31 01:42:00,
2013-03-30 20:48:00,54.6,53.5,30.00,SSE,168,0.0,9.0,96,0.04,,,0.26,Wunderground v.1.15,2013-03-31 01:48:00,
2013-03-30 20:53:00,54.6,53.5,30.00,South,171,0.0,9.0,96,0.06,,,0.27,Wunderground v.1.15,2013-03-31 01:53:00,
2013-03-30 20:58:00,54.6,53.5,30.00,South,170,0.0,9.0,96,0.06,,,0.27,Wunderground v.1.15,2013-03-31 01:58:00,
2013-03-30 21:04:00,54.6,53.5,30.00,SSE,168,0.0,9.0,96,0.06,,,0.28,Wunderground v.1.15,2013-03-31 02:04:00,
2013-03-30 21:09:00,54.5,53.4,30.00,SSE,168,0.0,9.0,96,0.06,,,0.28,Wunderground v.1.15,2013-03-31 02:09:00,
2013-03-30 21:14:00,54.5,53.4,30.00,SSE,167,0.0,9.0,96,0.05,,,0.29,Wunderground v.1.15,2013-03-31 02:14:00,
2013-03-30 21:19:00,54.4,53.3,30.00,SSE,166,0.0,9.0,96,0.05,,,0.29,Wunderground v.1.15,2013-03-31 02:19:00,
2013-03-30 21:24:00,54.3,53.2,30.00,SSE,166,0.0,9.0,96,0.08,,,0.30,Wunderground v.1.15,2013-03-31 02:24:00,
2013-03-30 21:30:00,54.3,53.2,29.99,SSE,166,0.0,9.0,96,0.06,,,0.30,Wunderground v.1.15,2013-03-31 02:30:00,
2013-03-30 21:35:00,54.2,53.1,30.00,SSE,166,0.0,9.0,96,0.06,,,0.31,Wunderground v.1.15,2013-03-31 02:35:00,
2013-03-30 21:41:00,54.2,53.1,30.00,SSE,166,0.0,9.0,96,0.06,,,0.31,Wunderground v.1.15,2013-03-31 02:41:00,
2013-03-30 21:46:00,54.2,53.4,30.00,SSE,166,0.0,9.0,97,0.04,,,0.32,Wunderground v.1.15,2013-03-31 02:46:00,
2013-03-30 21:52:00,54.2,53.4,30.00,SSE,166,0.0,9.0,97,0.09,,,0.33,Wunderground v.1.15,2013-03-31 02:52:00,
2013-03-30 21:57:00,54.2,53.4,30.00,SSE,164,0.0,9.0,97,0.19,,,0.34,Wunderground v.1.15,2013-03-31 02:57:00,
2013-03-30 22:02:00,54.3,53.5,30.00,South,171,1.0,9.0,97,0.31,,,0.35,Wunderground v.1.15,2013-03-31 03:02:00,
2013-03-30 22:08:00,54.2,53.4,30.00,South,174,1.0,9.0,97,0.16,,,0.37,Wunderground v.1.15,2013-03-31 03:08:00,
2013-03-30 22:13:00,54.2,53.4,30.00,SSE,164,1.0,9.0,97,0.12,,,0.38,Wunderground v.1.15,2013-03-31 03:13:00,
2013-03-30 22:19:00,54.2,53.4,30.00,SW,215,1.0,9.0,97,0.10,,,0.39,Wunderground v.1.15,2013-03-31 03:19:00,
2013-03-30 22:25:00,54.3,53.5,30.00,South,178,3.0,9.0,97,0.09,,,0.40,Wunderground v.1.15,2013-03-31 03:25:00,
2013-03-30 22:30:00,54.3,53.5,29.99,South,181,3.0,9.0,97,0.08,,,0.41,Wunderground v.1.15,2013-03-31 03:30:00,
2013-03-30 22:35:00,54.3,53.5,29.99,SSW,206,3.0,9.0,97,0.08,,,0.41,Wunderground v.1.15,2013-03-31 03:35:00,
2013-03-30 22:40:00,54.3,53.5,29.99,SSW,206,3.0,4.0,97,0.09,,,0.42,Wunderground v.1.15,2013-03-31 03:40:00,
2013-03-30 22:46:00,54.3,53.5,29.98,South,170,2.0,9.0,97,0.06,,,0.42,Wunderground v.1.15,2013-03-31 03:46:00,
2013-03-30 22:52:00,54.3,53.5,29.98,South,171,2.0,9.0,97,0.06,,,0.43,Wunderground v.1.15,2013-03-31 03:52:00,
2013-03-30 22:57:00,54.4,53.6,29.98,SSE,167,2.0,9.0,97,0.08,,,0.44,Wunderground v.1.15,2013-03-31 03:57:00,
2013-03-30 23:00:00,54.4,53.6,29.98,South,178,2.0,9.0,97,0.12,,,0.45,Wunderground v.1.15,2013-03-31 04:00:00,
2013-03-30 23:02:00,54.4,53.6,29.98,South,178,2.0,9.0,97,0.12,,,0.45,Wunderground v.1.15,2013-03-31 04:02:00,
2013-03-30 23:07:00,54.3,53.5,29.98,South,175,2.0,9.0,97,0.09,,,0.46,Wunderground v.1.15,2013-03-31 04:07:00,
2013-03-30 23:09:00,54.3,53.5,29.98,South,170,2.0,9.0,97,0.09,,,0.46,Wunderground v.1.15,2013-03-31 04:09:00,
2013-03-30 23:14:00,54.3,53.5,29.97,SSW,194,2.0,9.0,97,0.07,,,0.47,Wunderground v.1.15,2013-03-31 04:14:00,
2013-03-30 23:19:00,54.3,53.5,29.97,South,175,2.0,9.0,97,0.10,,,0.47,Wunderground v.1.15,2013-03-31 04:19:00,
2013-03-30 23:25:00,54.3,53.5,29.97,South,190,2.0,9.0,97,0.20,,,0.49,Wunderground v.1.15,2013-03-31 04:25:00,
2013-03-30 23:30:00,54.2,53.4,29.97,South,180,2.0,9.0,97,0.17,,,0.51,Wunderground v.1.15,2013-03-31 04:30:00,
2013-03-30 23:36:00,54.2,53.4,29.97,South,171,2.0,9.0,97,0.10,,,0.51,Wunderground v.1.15,2013-03-31 04:36:00,
2013-03-30 23:41:00,54.2,53.4,29.96,South,176,2.0,9.0,97,0.08,,,0.52,Wunderground v.1.15,2013-03-31 04:41:00,
2013-03-30 23:46:00,54.1,53.3,29.96,South,184,3.0,9.0,97,0.06,,,0.52,Wunderground v.1.15,2013-03-31 04:46:00,
2013-03-30 23:52:00,54.1,53.3,29.96,South,178,3.0,9.0,97,0.04,,,0.52,Wunderground v.1.15,2013-03-31 04:52:00,
2013-03-30 23:57:00,54.1,53.3,29.96,South,174,3.0,9.0,97,0.00,,,0.52,Wunderground v.1.15,2013-03-31 04:57:00,